TimeEST,TemperatureF,Dew PointF,Humidity,Sea Level PressureIn,VisibilityMPH,Wind Direction,Wind SpeedMPH,Gust SpeedMPH,PrecipitationIn,Events,Conditions,WindDirDegrees,DateUTC
12:04 AM,66.2,64.4,94,30.12,10.0,NNW,5.8,-,N/A,,Mostly Cloudy,330,2013-01-20 05:04:00
12:53 AM,66.0,64.9,96,30.12,7.0,NNW,3.5,-,N/A,,Overcast,340,2013-01-20 05:53:00
1:21 AM,64.4,64.4,100,30.10,10.0,North,3.5,-,N/A,,Scattered Clouds,350,2013-01-20 06:21:00
1:53 AM,63.0,63.0,100,30.11,10.0,Calm,Calm,-,N/A,,Mostly Cloudy,0,2013-01-20 06:53:00
2:29 AM,64.4,64.4,100,30.09,1.8,Calm,Calm,-,0.01,,Overcast,0,2013-01-20 07:29:00
2:37 AM,62.6,62.6,100,30.09,0.5,North,3.5,-,0.01,Fog,Fog,350,2013-01-20 07:37:00
2:53 AM,63.0,63.0,100,30.09,0.5,Calm,Calm,-,0.01,Fog,Fog,0,2013-01-20 07:53:00
3:32 AM,62.6,62.6,100,30.08,1.5,NNW,4.6,-,N/A,,Overcast,340,2013-01-20 08:32:00
3:49 AM,62.6,62.6,100,30.08,3.0,North,3.5,-,N/A,,Overcast,350,2013-01-20 08:49:00
3:53 AM,63.0,63.0,100,30.08,6.0,Calm,Calm,-,N/A,,Overcast,0,2013-01-20 08:53:00
4:33 AM,62.6,62.6,100,30.09,10.0,Calm,Calm,-,N/A,,Overcast,0,2013-01-20 09:33:00
4:53 AM,63.0,63.0,100,30.09,10.0,Calm,Calm,-,N/A,,Overcast,0,2013-01-20 09:53:00
5:41 AM,64.4,64.4,100,30.10,10.0,NW,6.9,-,N/A,,Mostly Cloudy,310,2013-01-20 10:41:00
5:53 AM,64.0,64.0,100,30.11,10.0,NW,6.9,-,N/A,,Overcast,320,2013-01-20 10:53:00
6:13 AM,64.4,64.4,100,30.10,9.0,WNW,5.8,-,N/A,,Overcast,290,2013-01-20 11:13:00
6:53 AM,63.0,63.0,100,30.12,1.0,NNW,5.8,-,N/A,,Overcast,330,2013-01-20 11:53:00
7:53 AM,64.0,64.0,100,30.14,2.0,Calm,Calm,-,N/A,,Overcast,0,2013-01-20 12:53:00
8:53 AM,66.0,66.0,100,30.16,0.5,North,3.5,-,N/A,Fog,Fog,360,2013-01-20 13:53:00
9:00 AM,64.4,64.4,100,30.15,10.0,Calm,Calm,-,N/A,,Overcast,0,2013-01-20 14:00:00
9:36 AM,69.8,66.2,88,30.16,8.0,Calm,Calm,-,N/A,,Clear,0,2013-01-20 14:36:00
9:53 AM,73.0,66.9,81,30.17,8.0,NE,3.5,-,N/A,,Clear,40,2013-01-20 14:53:00
10:53 AM,75.0,66.0,73,30.14,10.0,WNW,4.6,-,N/A,,Clear,300,2013-01-20 15:53:00
11:53 AM,78.1,64.9,64,30.11,10.0,Variable,3.5,-,N/A,,Clear,0,2013-01-20 16:53:00
12:53 PM,80.1,63.0,56,30.07,10.0,West,3.5,-,N/A,,Partly Cloudy,260,2013-01-20 17:53:00
1:53 PM,82.0,62.1,51,30.04,10.0,NNE,5.8,-,N/A,,Partly Cloudy,20,2013-01-20 18:53:00
2:53 PM,79.0,64.9,62,30.03,10.0,East,5.8,-,N/A,,Mostly Cloudy,100,2013-01-20 19:53:00
3:53 PM,78.8,64.4,61,30.03,10.0,East,5.8,-,N/A,,Overcast,100,2013-01-20 20:53:00
4:53 PM,77.0,64.9,66,30.05,10.0,ESE,9.2,-,N/A,,Overcast,110,2013-01-20 21:53:00
5:53 PM,75.0,64.0,69,30.05,10.0,ESE,8.1,-,N/A,,Mostly Cloudy,110,2013-01-20 22:53:00
6:53 PM,73.0,64.0,73,30.05,10.0,ENE,4.6,-,N/A,,Partly Cloudy,70,2013-01-20 23:53:00
7:53 PM,73.0,64.9,76,30.06,10.0,Calm,Calm,-,N/A,,Partly Cloudy,0,2013-01-21 00:53:00
8:53 PM,70.0,64.9,84,30.07,10.0,Calm,Calm,-,N/A,,Clear,0,2013-01-21 01:53:00
9:53 PM,70.0,66.0,87,30.07,10.0,Calm,Calm,-,N/A,,Mostly Cloudy,0,2013-01-21 02:53:00
10:53 PM,70.0,66.9,90,30.07,10.0,North,4.6,-,N/A,,Partly Cloudy,10,2013-01-21 03:53:00
11:53 PM,70.0,66.9,90,30.06,10.0,North,5.8,-,N/A,,Mostly Cloudy,10,2013-01-21 04:53:00